QPF
0.02 0.03 0.07 0.10 0.08 0.06 0.04 0.02 0.04 0.03 0.11 0.21 0.10 0.03 0.03 0.00 0.00 0.00 0.00 0.00 0.04 0.12 0.00 0.00 0.00 0.00 0.00 0.00 0.00 0.00 0.00 0.00 0.00 0.00 0.00 0.00 0.00 0.00 0.00 0.00 0.00 0.00 0.00 0.00 0.00 0.00 0.00
0.03 0.06 0.10 0.13 0.10 0.06 0.03 0.04 0.01 0.02 0.07 0.15 0.16 0.04 0.01 0.00 0.00 0.00 0.00 0.00 0.09 0.09 0.01 0.00 0.00 0.00 0.00 0.00 0.00 0.00 0.00 0.00 0.00 0.00 0.00 0.00 0.00 0.00 0.00 0.00 0.00 0.00 0.00 0.00 0.00 0.00 0.00
0.05 0.06 0.08 0.08 0.05 0.02 0.04 0.06 0.01 0.00 0.02 0.02 0.04 0.01 0.01 0.00 0.00 0.00 0.00 0.06 0.14 0.02 0.01 0.00 0.00 0.00 0.00 0.00 0.00 0.00 0.00 0.00 0.00 0.00 0.00 0.00 0.00 0.00 0.00 0.00 0.00 0.00 0.00 0.00 0.00 0.00 0.00
0.07 0.03 0.05 0.04 0.05 0.06 0.05 0.05 0.04 0.01 0.03 0.04 0.02 0.00 0.00 0.00 0.00 0.01 0.08 0.06 0.06 0.09 0.03 0.00 0.00 0.00 0.00 0.00 0.00 0.00 0.00 0.00 0.00 0.00 0.00 0.00 0.00 0.00 0.00 0.00 0.00 0.00 0.00 0.00 0.00 0.00 0.00
0.06 0.01 0.03 0.02 0.04 0.06 0.03 0.03 0.09 0.09 0.13 0.10 0.01 0.00 0.00 0.00 0.00 0.16 0.11 0.05 0.03 0.09 0.02 0.00 0.00 0.00 0.00 0.00 0.00 0.00 0.00 0.00 0.00 0.00 0.00 0.00 0.00 0.00 0.00 0.00 0.00 0.00 0.00 0.00 0.00 0.00 0.00
0.06 0.00 0.01 0.02 0.04 0.02 0.00 0.02 0.10 0.11 0.07 0.03 0.00 0.00 0.00 0.01 0.07 0.18 0.06 0.02 0.01 0.01 0.00 0.00 0.00 0.00 0.00 0.00 0.00 0.00 0.00 0.00 0.00 0.00 0.00 0.00 0.00 0.00 0.00 0.00 0.00 0.00 0.00 0.00 0.00 0.00 0.00
0.04 0.00 0.00 0.01 0.02 0.00 0.00 0.00 0.01 0.02 0.01 0.00 0.00 0.01 0.01 0.02 0.12 0.09 0.04 0.00 0.00 0.00 0.00 0.00 0.00 0.00 0.00 0.00 0.00 0.00 0.00 0.00 0.00 0.00 0.00 0.00 0.00 0.00 0.00 0.00 0.00 0.00 0.00 0.00 0.00 0.00 0.00
0.02 0.00 0.00 0.01 0.01 0.00 0.00 0.00 0.00 0.00 0.00 0.01 0.07 0.11 0.02 0.04 0.25 0.11 0.01 0.00 0.00 0.00 0.00 0.00 0.00 0.00 0.00 0.00 0.00 0.00 0.00 0.00 0.00 0.00 0.00 0.00 0.00 0.00 0.00 0.00 0.00 0.00 0.00 0.00 0.00 0.00 0.00
0.00 0.00 0.00 0.01 0.00 0.00 0.00 0.00 0.00 0.00 0.00 0.01 0.05 0.06 0.03 0.05 0.11 0.02 0.00 0.00 0.00 0.00 0.00 0.00 0.00 0.00 0.00 0.00 0.00 0.00 0.00 0.00 0.00 0.00 0.00 0.00 0.00 0.00 0.00 0.00 0.00 0.00 0.00 0.00 0.00 0.00 0.00
0.00 0.00 0.00 0.00 0.00 0.00 0.00 0.00 0.00 0.00 0.00 0.00 0.01 0.02 0.00 0.00 0.00 0.00 0.00 0.00 0.00 0.00 0.00 0.00 0.00 0.00 0.00 0.00 0.00 0.00 0.00 0.00 0.00 0.00 0.00 0.00 0.00 0.00 0.00 0.00 0.00 0.00 0.00 0.00 0.00 0.02 0.01
0.00 0.00 0.00 0.00 0.00 0.00 0.00 0.00 0.00 0.00 0.00 0.00 0.00 0.00 0.00 0.00 0.00 0.00 0.00 0.00 0.00 0.00 0.00 0.00 0.00 0.00 0.00 0.00 0.00 0.00 0.00 0.00 0.00 0.00 0.00 0.00 0.00 0.00 0.00 0.00 0.00 0.00 0.00 0.00 0.00 0.03 0.02
0.00 0.00 0.01 0.00 0.00 0.00 0.00 0.00 0.01 0.01 0.00 0.00 0.00 0.00 0.00 0.00 0.00 0.00 0.00 0.00 0.00 0.00 0.00 0.00 0.00 0.00 0.00 0.00 0.00 0.00 0.00 0.00 0.00 0.00 0.00 0.00 0.00 0.00 0.00 0.00 0.00 0.00 0.00 0.00 0.00 0.01 0.00
0.00 0.00 0.00 0.00 0.00 0.00 0.00 0.00 0.00 0.01 0.00 0.00 0.00 0.00 0.00 0.00 0.00 0.00 0.00 0.00 0.00 0.00 0.00 0.00 0.00 0.00 0.00 0.00 0.00 0.00 0.00 0.00 0.00 0.00 0.00 0.00 0.00 0.00 0.00 0.00 0.00 0.03 0.09 0.04 0.02 0.01 0.02
0.00 0.00 0.00 0.00 0.00 0.00 0.00 0.00 0.00 0.01 0.00 0.00 0.00 0.00 0.00 0.00 0.00 0.00 0.00 0.00 0.00 0.00 0.00 0.00 0.00 0.00 0.00 0.00 0.00 0.00 0.00 0.00 0.00 0.00 0.00 0.00 0.00 0.00 0.00 0.00 0.01 0.03 0.08 0.07 0.03 0.03 0.03
0.00 0.00 0.00 0.00 0.00 0.00 0.00 0.00 0.00 0.00 0.00 0.00 0.00 0.00 0.00 0.00 0.00 0.00 0.00 0.00 0.00 0.00 0.00 0.00 0.00 0.00 0.00 0.00 0.00 0.00 0.00 0.00 0.00 0.00 0.00 0.00 0.00 0.00 0.00 0.00 0.00 0.02 0.05 0.04 0.03 0.02 0.01
0.00 0.00 0.00 0.00 0.00 0.00 0.00 0.00 0.00 0.00 0.00 0.00 0.00 0.00 0.00 0.00 0.00 0.00 0.00 0.00 0.00 0.00 0.00 0.00 0.00 0.00 0.00 0.00 0.00 0.00 0.00 0.00 0.00 0.00 0.00 0.00 0.00 0.00 0.00 0.00 0.00 0.00 0.01 0.02 0.01 0.02 0.01
0.00 0.00 0.00 0.00 0.00 0.00 0.00 0.00 0.00 0.00 0.00 0.00 0.00 0.00 0.00 0.00 0.00 0.00 0.00 0.00 0.00 0.00 0.00 0.00 0.00 0.00 0.00 0.00 0.00 0.00 0.00 0.00 0.00 0.00 0.00 0.00 0.00 0.00 0.00 0.00 0.00 0.00 0.00 0.00 0.00 0.00 0.00
0.00 0.00 0.00 0.00 0.00 0.00 0.00 0.00 0.00 0.00 0.00 0.00 0.00 0.00 0.00 0.00 0.00 0.00 0.00 0.00 0.00 0.00 0.00 0.00 0.00 0.00 0.00 0.00 0.00 0.00 0.00 0.00 0.00 0.00 0.00 0.00 0.00 0.00 0.00 0.00 0.00 0.00 0.00 0.00 0.00 0.00 0.00
0.00 0.00 0.00 0.00 0.00 0.00 0.00 0.00 0.00 0.00 0.00 0.00 0.00 0.00 0.00 0.00 0.00 0.00 0.00 0.00 0.00 0.00 0.00 0.00 0.00 0.00 0.00 0.00 0.00 0.00 0.00 0.00 0.00 0.00 0.00 0.00 0.00 0.00 0.00 0.00 0.00 0.00 0.00 0.00 0.00 0.00 0.00
0.00 0.00 0.00 0.00 0.00 0.00 0.00 0.00 0.00 0.00 0.00 0.00 0.00 0.00 0.00 0.00 0.00 0.00 0.00 0.00 0.00 0.00 0.00 0.00 0.00 0.00 0.00 0.00 0.00 0.00 0.00 0.00 0.00 0.00 0.00 0.00 0.00 0.00 0.00 0.00 0.00 0.00 0.00 0.00 0.00 0.00 0.00
0.00 0.00 0.00 0.00 0.00 0.00 0.00 0.00 0.00 0.00 0.00 0.00 0.00 0.00 0.00 0.00 0.00 0.00 0.00 0.00 0.00 0.00 0.00 0.00 0.00 0.00 0.00 0.00 0.00 0.00 0.00 0.00 0.00 0.00 0.00 0.00 0.00 0.00 0.00 0.00 0.00 0.00 0.00 0.00 0.00 0.00 0.00
0.00 0.00 0.00 0.00 0.00 0.00 0.00 0.00 0.00 0.00 0.00 0.00 0.00 0.00 0.00 0.00 0.00 0.00 0.00 0.00 0.00 0.00 0.00 0.00 0.00 0.00 0.00 0.00 0.00 0.00 0.00 0.00 0.00 0.00 0.00 0.00 0.00 0.00 0.00 0.00 0.00 0.00 0.00 0.00 0.00 0.00 0.00
0.00 0.00 0.00 0.00 0.00 0.00 0.00 0.00 0.00 0.00 0.00 0.00 0.00 0.00 0.00 0.00 0.00 0.00 0.00 0.00 0.00 0.00 0.00 0.00 0.00 0.00 0.00 0.00 0.00 0.00 0.00 0.00 0.00 0.00 0.00 0.00 0.00 0.00 0.00 0.00 0.00 0.00 0.00 0.00 0.00 0.00 0.00
0.00 0.00 0.00 0.00 0.00 0.00 0.00 0.00 0.00 0.00 0.00 0.00 0.00 0.00 0.00 0.00 0.00 0.00 0.00 0.00 0.00 0.00 0.00 0.00 0.00 0.00 0.00 0.00 0.00 0.00 0.00 0.00 0.00 0.00 0.00 0.00 0.00 0.00 0.00 0.00 0.00 0.00 0.00 0.00 0.00 0.00 0.00
0.00 0.00 0.00 0.00 0.00 0.00 0.00 0.00 0.00 0.00 0.00 0.00 0.00 0.00 0.00 0.00 0.00 0.00 0.00 0.00 0.00 0.00 0.00 0.00 0.00 0.00 0.00 0.00 0.00 0.00 0.00 0.00 0.00 0.00 0.00 0.00 0.00 0.00 0.00 0.00 0.00 0.00 0.00 0.00 0.00 0.00 0.00
0.00 0.00 0.00 0.00 0.00 0.00 0.00 0.00 0.00 0.00 0.00 0.00 0.00 0.00 0.00 0.00 0.00 0.00 0.00 0.00 0.00 0.00 0.00 0.00 0.00 0.00 0.00 0.00 0.00 0.00 0.00 0.00 0.00 0.00 0.00 0.00 0.00 0.00 0.00 0.00 0.00 0.00 0.00 0.00 0.00 0.00 0.00
0.00 0.00 0.00 0.00 0.00 0.00 0.00 0.00 0.00 0.00 0.00 0.00 0.00 0.00 0.00 0.00 0.00 0.00 0.00 0.00 0.00 0.00 0.00 0.00 0.00 0.00 0.00 0.00 0.00 0.00 0.00 0.00 0.00 0.00 0.00 0.00 0.00 0.00 0.00 0.00 0.00 0.00 0.00 0.00 0.00 0.00 0.00
0.00 0.00 0.00 0.00 0.00 0.00 0.00 0.00 0.00 0.00 0.00 0.00 0.00 0.00 0.00 0.00 0.00 0.00 0.00 0.00 0.00 0.00 0.00 0.00 0.00 0.00 0.00 0.00 0.00 0.00 0.00 0.00 0.00 0.00 0.00 0.00 0.00 0.00 0.00 0.00 0.00 0.00 0.00 0.00 0.00 0.00 0.00
0.00 0.00 0.00 0.00 0.00 0.00 0.01 0.00 0.00 0.00 0.00 0.00 0.00 0.00 0.00 0.00 0.00 0.00 0.00 0.00 0.00 0.00 0.00 0.00 0.00 0.00 0.00 0.00 0.00 0.00 0.00 0.00 0.00 0.00 0.00 0.00 0.00 0.00 0.00 0.00 0.00 0.00 0.00 0.00 0.00 0.00 0.00
MSLP
1015.73 1015.34 1014.79 1014.49 1014.25 1014.04 1013.56 1013.27 1013.32 1013.36 1013.45 1013.49 1013.84 1013.99 1014.12 1014.12 1014.30 1014.38 1014.41 1014.27 1014.22 1014.46 1015.33 1015.89 1016.22 1016.78 1017.22 1017.52 1017.78 1017.30 1017.12 1017.28 1017.34 1017.33 1017.93 1018.26 1018.71 1019.23 1019.70 1020.09 1020.15 1020.16 1020.02 1019.74 1019.50 1019.25 1018.90
1015.56 1015.31 1014.70 1014.20 1013.92 1013.68 1013.42 1013.19 1013.25 1013.28 1013.37 1013.38 1013.74 1014.03 1014.08 1014.00 1014.16 1014.09 1014.20 1014.26 1014.35 1014.48 1015.43 1015.95 1016.54 1016.89 1017.18 1017.73 1017.71 1017.50 1017.64 1017.92 1018.00 1018.04 1018.69 1018.82 1019.22 1019.54 1020.06 1020.45 1020.88 1020.97 1020.66 1020.11 1019.55 1019.24 1018.92
1015.41 1015.07 1014.65 1014.01 1013.82 1013.58 1013.43 1013.38 1013.40 1013.53 1013.51 1013.60 1013.78 1013.99 1013.93 1013.94 1014.06 1013.80 1013.62 1013.88 1013.97 1014.80 1015.71 1016.28 1016.81 1017.04 1017.62 1018.12 1017.88 1017.86 1018.04 1018.41 1018.54 1018.70 1019.20 1019.40 1019.45 1020.00 1020.53 1021.00 1021.39 1021.47 1021.16 1020.21 1019.59 1019.19 1018.73
1015.66 1015.11 1014.72 1014.19 1013.91 1013.60 1013.57 1013.56 1013.67 1013.68 1013.68 1013.68 1013.73 1013.78 1013.92 1014.05 1013.78 1013.32 1013.27 1014.05 1014.71 1015.36 1016.04 1016.71 1017.03 1017.27 1018.15 1018.13 1018.14 1018.12 1018.47 1018.96 1018.85 1019.04 1019.36 1019.53 1019.71 1020.48 1021.11 1021.62 1021.94 1022.27 1022.17 1021.62 1020.08 1019.50 1018.72
1015.36 1015.28 1014.85 1014.46 1014.16 1013.85 1013.87 1014.03 1014.14 1014.06 1013.94 1013.89 1013.88 1013.95 1014.19 1014.17 1013.63 1013.99 1014.34 1014.88 1015.46 1015.86 1016.64 1017.05 1017.35 1017.58 1018.58 1018.23 1018.55 1018.63 1018.81 1019.15 1019.35 1019.57 1019.74 1019.70 1020.24 1021.38 1021.92 1022.69 1023.21 1023.31 1023.04 1022.21 1020.87 1019.55 1019.19
1015.44 1015.45 1014.99 1014.59 1014.28 1014.17 1014.38 1014.31 1014.16 1014.15 1014.22 1014.19 1014.15 1014.25 1014.52 1014.25 1013.59 1013.82 1014.67 1015.28 1015.86 1016.65 1017.28 1017.35 1017.76 1018.27 1018.87 1018.74 1018.89 1018.97 1019.11 1019.41 1019.92 1020.19 1020.47 1020.86 1021.70 1022.24 1022.77 1023.42 1023.83 1023.61 1023.19 1022.34 1021.45 1020.01 1019.31
1015.90 1015.67 1015.42 1014.96 1014.77 1014.78 1014.62 1014.56 1014.65 1014.47 1014.62 1014.56 1014.04 1013.84 1014.75 1015.02 1014.78 1014.76 1015.51 1016.03 1017.06 1017.93 1018.23 1018.60 1018.71 1018.55 1018.72 1019.01 1019.01 1019.37 1019.39 1019.77 1020.29 1020.81 1021.45 1022.00 1022.76 1022.97 1022.92 1023.32 1023.26 1023.14 1022.78 1021.99 1020.57 1019.56 1019.47
1016.70 1016.04 1015.99 1015.72 1015.29 1015.30 1015.02 1014.96 1015.14 1015.06 1015.13 1015.09 1013.98 1013.39 1014.92 1015.17 1015.77 1016.17 1016.61 1017.09 1017.74 1017.99 1018.89 1018.90 1018.71 1018.88 1018.85 1018.84 1019.42 1019.73 1019.66 1020.42 1020.87 1021.43 1021.90 1022.45 1022.51 1022.28 1022.43 1022.57 1022.57 1022.60 1022.09 1021.12 1019.74 1018.78 1018.74
1017.39 1016.77 1016.71 1016.57 1016.20 1016.03 1015.68 1015.52 1015.49 1015.72 1015.92 1015.88 1015.66 1015.51 1015.82 1015.94 1016.47 1016.73 1017.27 1017.85 1017.93 1017.75 1018.57 1019.35 1019.17 1018.96 1019.02 1019.16 1019.68 1019.94 1020.16 1020.62 1021.12 1021.60 1021.92 1022.24 1021.60 1021.35 1021.49 1021.44 1021.49 1021.28 1020.86 1020.01 1019.71 1018.41 1017.72
1017.88 1017.60 1017.37 1017.51 1017.22 1016.86 1016.82 1016.56 1016.29 1016.07 1016.14 1016.50 1016.60 1016.59 1016.76 1016.91 1017.17 1017.70 1018.10 1018.21 1017.92 1017.70 1018.93 1020.13 1019.32 1019.18 1019.33 1019.35 1020.14 1020.22 1020.39 1021.03 1021.38 1021.64 1021.81 1021.70 1020.94 1020.89 1020.68 1020.43 1020.40 1020.08 1018.89 1018.96 1018.72 1018.65 1017.55
1018.81 1018.61 1018.23 1018.00 1018.05 1018.04 1017.84 1017.55 1017.33 1016.71 1016.54 1016.77 1017.13 1017.15 1017.28 1017.09 1017.64 1018.37 1019.07 1018.40 1018.00 1018.07 1019.48 1020.43 1019.68 1019.34 1019.49 1019.88 1020.26 1020.46 1020.82 1020.91 1021.21 1021.43 1022.00 1020.97 1020.51 1020.25 1019.72 1018.93 1018.94 1018.64 1018.10 1017.89 1017.65 1017.51 1017.12
1019.40 1019.51 1019.22 1019.04 1018.83 1018.80 1018.68 1018.50 1018.22 1018.20 1018.05 1017.82 1017.68 1017.80 1017.81 1018.05 1018.44 1019.24 1018.84 1018.52 1018.53 1019.37 1021.19 1020.51 1019.84 1019.65 1019.89 1019.93 1020.21 1020.57 1020.73 1020.85 1020.95 1021.04 1021.04 1020.41 1019.73 1019.71 1018.57 1017.81 1018.01 1017.47 1017.42 1016.95 1016.69 1016.92 1016.66
1019.27 1019.83 1019.93 1019.88 1019.69 1019.30 1019.21 1019.20 1019.01 1019.03 1019.23 1019.20 1018.72 1018.28 1018.49 1018.76 1019.60 1018.99 1018.81 1019.16 1019.76 1020.23 1021.36 1020.71 1020.14 1019.89 1019.79 1019.72 1019.85 1020.20 1020.59 1020.73 1020.72 1020.79 1020.27 1019.27 1018.88 1018.19 1017.79 1017.73 1017.00 1017.12 1016.93 1016.67 1016.59 1016.59 1015.89
1020.26 1019.71 1020.11 1020.34 1020.24 1019.95 1019.67 1019.53 1019.49 1019.50 1019.51 1019.41 1019.74 1019.35 1019.21 1019.46 1019.47 1019.20 1019.33 1020.00 1020.66 1021.30 1020.76 1020.03 1019.72 1019.65 1019.66 1019.38 1019.47 1019.74 1020.12 1020.00 1019.82 1020.09 1019.92 1019.52 1018.00 1017.01 1016.65 1016.71 1016.65 1016.61 1016.81 1016.59 1016.36 1015.85 1015.39
1020.91 1020.48 1020.11 1020.42 1020.61 1020.46 1020.24 1020.08 1019.86 1019.84 1019.57 1019.35 1019.31 1019.85 1020.00 1019.76 1019.38 1019.16 1019.81 1020.56 1021.38 1020.92 1020.27 1019.70 1019.36 1019.47 1019.09 1018.85 1019.08 1019.35 1019.64 1019.33 1018.89 1019.12 1019.50 1018.88 1017.50 1015.65 1015.32 1015.49 1016.09 1016.07 1016.25 1016.18 1015.95 1015.26 1015.39
1021.38 1021.10 1021.06 1020.50 1020.86 1020.97 1020.76 1020.47 1020.32 1020.00 1019.67 1019.32 1019.98 1020.39 1020.37 1019.84 1019.59 1019.72 1020.26 1021.07 1020.97 1020.29 1019.65 1019.38 1019.22 1019.02 1018.68 1018.56 1018.91 1019.08 1019.08 1018.38 1018.33 1018.05 1018.22 1018.16 1017.62 1015.77 1014.72 1014.91 1015.43 1015.45 1015.85 1015.94 1015.76 1015.45 1015.46
1021.65 1021.45 1021.40 1021.51 1020.76 1020.66 1020.92 1020.83 1020.45 1019.91 1019.46 1019.20 1020.14 1020.58 1019.99 1019.66 1019.56 1020.22 1021.08 1020.79 1020.23 1019.38 1019.13 1019.05 1018.87 1018.64 1018.49 1018.54 1018.60 1018.75 1018.59 1017.93 1017.77 1017.72 1018.03 1018.05 1018.09 1016.24 1015.48 1014.97 1015.53 1015.62 1015.57 1015.67 1015.58 1015.69 1015.89
1021.98 1021.73 1021.65 1021.60 1021.32 1020.76 1020.60 1020.91 1020.65 1020.28 1019.44 1019.68 1020.58 1021.24 1019.99 1019.64 1020.25 1021.38 1021.37 1020.32 1019.74 1019.13 1018.77 1018.62 1018.43 1018.30 1018.33 1018.38 1018.45 1018.43 1018.23 1017.80 1017.52 1017.75 1017.92 1017.88 1018.07 1017.52 1015.82 1015.23 1015.47 1015.60 1015.81 1015.82 1016.01 1015.89 1016.20
1022.09 1022.06 1021.75 1021.56 1021.51 1021.39 1020.99 1020.54 1020.69 1020.44 1020.07 1020.42 1021.83 1021.62 1020.23 1020.26 1021.70 1022.29 1021.13 1020.22 1019.61 1019.07 1018.91 1018.73 1018.47 1018.28 1018.18 1018.29 1018.41 1018.08 1017.77 1017.32 1017.43 1017.60 1017.65 1017.89 1018.42 1018.05 1016.15 1015.85 1015.98 1016.20 1016.28 1016.15 1016.09 1015.98 1016.52
1022.18 1022.02 1021.88 1021.75 1021.49 1021.68 1021.58 1021.03 1020.51 1020.27 1020.24 1020.73 1021.81 1022.39 1021.72 1021.55 1022.42 1022.31 1021.85 1020.64 1019.71 1019.03 1018.83 1018.73 1018.54 1018.24 1018.22 1018.27 1018.29 1018.19 1017.97 1017.44 1017.44 1017.48 1017.52 1017.96 1018.68 1018.91 1018.46 1017.75 1017.28 1016.72 1016.44 1016.52 1016.38 1016.70 1016.71
1022.30 1022.07 1021.96 1021.84 1021.64 1021.33 1021.44 1021.31 1020.88 1020.28 1019.98 1021.09 1022.38 1023.42 1023.24 1023.15 1022.71 1022.38 1021.84 1020.88 1020.05 1019.53 1019.07 1018.74 1018.77 1018.99 1018.95 1018.70 1018.53 1018.49 1018.26 1017.94 1017.47 1017.57 1017.66 1018.20 1018.78 1018.87 1018.35 1017.83 1017.29 1016.66 1016.48 1016.41 1016.43 1016.40 1016.61
1022.29 1022.02 1021.79 1021.67 1021.54 1021.50 1021.17 1021.17 1021.14 1020.90 1020.42 1020.98 1022.66 1023.17 1023.54 1023.24 1022.92 1022.27 1021.67 1020.87 1020.36 1019.70 1019.40 1019.15 1019.18 1019.09 1019.00 1018.94 1018.85 1018.83 1018.77 1018.54 1018.38 1017.99 1018.11 1018.36 1018.81 1019.03 1018.53 1017.69 1017.23 1016.66 1016.02 1016.01 1016.16 1016.34 1016.13
1022.55 1022.00 1021.80 1021.63 1021.51 1021.45 1021.38 1021.06 1021.04 1021.05 1021.15 1021.52 1022.13 1022.60 1023.10 1023.13 1022.86 1022.67 1021.94 1021.02 1020.20 1019.80 1019.56 1019.35 1019.40 1019.40 1019.23 1019.10 1018.96 1018.78 1018.80 1018.81 1018.77 1018.90 1018.76 1018.87 1019.13 1019.59 1019.19 1018.20 1017.32 1016.47 1015.22 1015.38 1015.48 1015.63 1015.96
1022.36 1022.20 1021.92 1021.76 1021.66 1021.47 1021.30 1021.21 1021.04 1021.00 1021.17 1021.79 1022.22 1022.51 1023.09 1023.24 1022.88 1022.09 1021.48 1021.04 1020.55 1020.12 1019.76 1019.31 1019.36 1019.45 1019.21 1019.05 1018.82 1018.75 1018.75 1018.68 1018.74 1018.69 1018.85 1019.14 1019.57 1019.87 1019.68 1018.70 1017.47 1015.12 1014.72 1014.75 1015.02 1014.86 1014.94
1021.90 1021.91 1021.83 1021.70 1021.65 1021.59 1021.53 1021.33 1021.31 1021.08 1021.29 1022.02 1022.34 1022.56 1023.18 1023.35 1022.89 1022.15 1021.59 1020.93 1020.37 1020.13 1020.04 1019.63 1019.24 1019.03 1019.09 1019.18 1019.35 1019.27 1019.07 1018.83 1018.47 1018.55 1018.95 1019.32 1019.82 1020.18 1020.12 1019.40 1016.64 1014.78 1014.44 1014.54 1014.59 1013.72 1013.58
1021.45 1021.72 1021.59 1021.58 1021.49 1021.43 1021.40 1021.34 1021.06 1021.26 1021.43 1022.06 1022.41 1022.66 1022.90 1023.30 1022.48 1021.65 1021.51 1021.06 1020.89 1020.44 1020.20 1019.61 1019.34 1019.22 1019.33 1019.64 1019.97 1020.32 1020.12 1019.51 1019.21 1018.82 1018.92 1019.46 1019.72 1020.28 1020.42 1019.48 1016.89 1014.39 1013.96 1013.91 1014.12 1013.83 1012.65
1021.04 1021.28 1021.39 1021.13 1021.13 1021.13 1021.24 1021.36 1021.36 1021.17 1021.25 1021.97 1022.50 1022.72 1023.01 1023.20 1022.09 1021.87 1021.60 1021.24 1020.87 1020.83 1020.64 1019.96 1019.49 1019.49 1019.59 1020.23 1020.55 1020.69 1020.47 1019.92 1019.92 1019.64 1019.51 1019.77 1020.18 1020.34 1019.95 1018.93 1016.00 1014.15 1013.85 1013.95 1014.21 1013.49 1012.80
1020.76 1020.80 1020.76 1020.82 1020.79 1020.75 1020.79 1020.72 1020.78 1020.95 1021.12 1021.72 1022.34 1022.68 1022.93 1023.09 1021.86 1021.51 1021.11 1020.80 1020.66 1020.79 1020.76 1020.38 1020.38 1020.09 1020.20 1020.71 1021.31 1021.37 1021.14 1020.32 1020.18 1019.41 1019.11 1019.41 1019.66 1019.77 1019.48 1018.41 1015.99 1014.20 1014.46 1014.13 1012.77 1012.70 1012.89
1020.00 1020.41 1020.68 1020.54 1020.40 1020.43 1020.23 1020.24 1020.56 1020.86 1020.79 1021.06 1022.08 1022.34 1022.62 1022.84 1021.75 1021.24 1020.65 1020.33 1020.23 1020.09 1020.20 1020.47 1020.52 1020.25 1020.32 1020.90 1021.31 1021.12 1021.09 1020.88 1020.76 1020.19 1019.03 1018.93 1018.11 1018.30 1018.04 1015.78 1014.17 1013.87 1013.33 1012.68 1012.65 1012.73 1013.02
Thickness
5449 5436 5432 5430 5429 5429 5432 5435 5438 5442 5447 5452 5454 5459 5467 5474 5482 5492 5502 5515 5525 5530 5530 5534 5539 5539 5540 5541 5542 5551 5553 5554 5557 5557 5552 5551 5546 5545 5541 5539 5540 5543 5541 5543 5544 5544 5544
5446 5434 5428 5425 5423 5423 5425 5430 5432 5436 5441 5448 5450 5453 5459 5470 5477 5489 5498 5507 5516 5526 5523 5528 5529 5533 5536 5530 5538 5543 5544 5543 5544 5543 5537 5537 5536 5535 5529 5528 5527 5521 5524 5526 5532 5531 5533
5446 5437 5429 5426 5422 5418 5417 5421 5425 5430 5437 5442 5444 5450 5457 5467 5474 5486 5498 5504 5515 5517 5518 5520 5523 5526 5523 5522 5531 5533 5532 5532 5532 5531 5526 5526 5528 5523 5519 5514 5511 5511 5511 5516 5519 5520 5523
5446 5437 5431 5426 5421 5417 5416 5417 5421 5426 5433 5441 5446 5450 5455 5461 5474 5488 5498 5502 5505 5509 5511 5512 5516 5519 5512 5520 5524 5527 5523 5520 5524 5522 5520 5519 5518 5512 5508 5503 5497 5494 5493 5486 5504 5503 5506
5454 5438 5435 5429 5424 5423 5422 5421 5422 5426 5432 5437 5443 5447 5449 5457 5476 5481 5487 5492 5497 5503 5502 5506 5510 5513 5506 5516 5516 5517 5516 5515 5514 5512 5510 5511 5506 5495 5491 5476 5462 5471 5462 5465 5477 5491 5488
5463 5442 5438 5437 5433 5432 5429 5429 5431 5433 5436 5439 5442 5444 5445 5453 5471 5482 5483 5488 5492 5494 5496 5502 5506 5505 5506 5508 5509 5511 5510 5508 5504 5500 5497 5492 5476 5465 5462 5447 5445 5442 5434 5450 5451 5469 5473
5476 5453 5442 5443 5439 5437 5437 5437 5436 5439 5438 5439 5444 5446 5444 5450 5462 5476 5479 5482 5483 5484 5488 5490 5495 5502 5505 5506 5508 5505 5506 5502 5497 5489 5478 5474 5451 5457 5462 5463 5467 5463 5457 5457 5464 5471 5462
5485 5471 5452 5446 5446 5441 5443 5441 5438 5439 5438 5439 5448 5456 5450 5458 5459 5466 5473 5475 5478 5488 5481 5492 5499 5500 5505 5508 5501 5500 5502 5492 5485 5468 5470 5465 5463 5467 5468 5468 5466 5456 5465 5469 5474 5479 5468
5495 5485 5464 5454 5451 5448 5450 5450 5448 5444 5440 5439 5443 5451 5457 5463 5463 5467 5473 5476 5483 5492 5485 5491 5496 5501 5503 5505 5498 5496 5496 5489 5481 5476 5474 5470 5472 5487 5485 5486 5482 5478 5475 5479 5470 5479 5478
5507 5494 5482 5462 5458 5456 5455 5457 5458 5457 5454 5448 5452 5455 5459 5464 5469 5470 5475 5480 5488 5496 5467 5481 5495 5498 5499 5502 5491 5496 5494 5489 5483 5484 5480 5480 5488 5486 5484 5485 5484 5481 5495 5488 5480 5474 5477
5515 5502 5492 5483 5470 5463 5462 5462 5461 5468 5468 5465 5464 5465 5468 5474 5475 5475 5476 5485 5493 5494 5456 5488 5493 5499 5498 5498 5495 5494 5493 5492 5489 5489 5480 5483 5491 5496 5494 5499 5494 5485 5501 5497 5488 5487 5488
5524 5513 5502 5492 5485 5476 5471 5470 5469 5467 5471 5474 5476 5476 5478 5479 5480 5478 5485 5490 5493 5468 5439 5471 5494 5494 5496 5500 5501 5496 5497 5496 5495 5495 5494 5496 5503 5497 5505 5511 5508 5511 5502 5499 5499 5490 5476
5539 5525 5514 5501 5494 5492 5485 5479 5478 5475 5471 5472 5479 5486 5486 5485 5481 5489 5493 5492 5470 5458 5481 5486 5490 5496 5501 5509 5511 5506 5502 5499 5503 5498 5484 5514 5509 5507 5508 5505 5515 5506 5496 5487 5476 5459 5488
5544 5539 5527 5517 5507 5501 5498 5493 5490 5487 5484 5484 5481 5487 5490 5489 5491 5495 5495 5482 5464 5494 5489 5506 5503 5505 5504 5512 5516 5514 5512 5511 5505 5509 5508 5506 5508 5515 5521 5517 5512 5506 5501 5511 5513 5515 5501
5549 5546 5540 5529 5521 5514 5509 5503 5501 5497 5497 5498 5498 5494 5493 5497 5500 5503 5495 5464 5470 5491 5502 5511 5514 5512 5515 5523 5523 5521 5509 5512 5519 5509 5506 5505 5514 5544 5540 5536 5524 5520 5519 5509 5515 5522 5498
5555 5550 5544 5541 5530 5525 5520 5516 5511 5509 5508 5509 5506 5498 5498 5503 5506 5504 5490 5491 5494 5500 5512 5514 5516 5518 5527 5530 5525 5521 5519 5528 5528 5529 5525 5527 5523 5545 5552 5543 5530 5529 5525 5521 5506 5524 5519
5562 5557 5549 5542 5544 5539 5531 5526 5523 5523 5523 5522 5511 5505 5509 5512 5512 5502 5487 5494 5515 5522 5521 5522 5523 5527 5530 5529 5529 5526 5529 5536 5536 5537 5529 5532 5526 5539 5548 5549 5535 5529 5528 5526 5528 5524 5520
5567 5562 5558 5551 5549 5548 5544 5536 5535 5533 5534 5531 5519 5503 5518 5518 5504 5485 5502 5522 5526 5530 5529 5530 5532 5534 5534 5534 5532 5533 5536 5537 5542 5541 5540 5539 5524 5513 5547 5552 5543 5538 5536 5527 5508 5538 5510
5571 5565 5562 5560 5555 5551 5548 5550 5545 5542 5544 5536 5520 5515 5526 5522 5494 5493 5517 5530 5532 5535 5535 5535 5538 5541 5543 5541 5540 5543 5546 5552 5549 5547 5547 5542 5516 5500 5541 5547 5541 5535 5535 5530 5526 5525 5518
5573 5570 5567 5562 5563 5555 5551 5552 5553 5553 5550 5546 5532 5518 5523 5520 5504 5514 5512 5528 5538 5542 5544 5544 5545 5548 5549 5548 5546 5549 5545 5555 5551 5552 5553 5542 5523 5524 5500 5533 5533 5533 5533 5530 5527 5496 5522
5572 5572 5571 5567 5565 5565 5560 5556 5557 5560 5560 5548 5534 5528 5525 5512 5525 5523 5523 5533 5541 5540 5547 5548 5552 5544 5545 5552 5551 5549 5551 5548 5556 5552 5551 5542 5536 5523 5534 5535 5542 5548 5544 5536 5522 5536 5533
5575 5574 5574 5572 5571 5567 5568 5565 5559 5559 5561 5555 5541 5534 5526 5528 5529 5539 5535 5548 5548 5552 5551 5555 5555 5549 5550 5555 5553 5553 5550 5553 5554 5552 5550 5542 5540 5537 5545 5552 5545 5553 5555 5556 5556 5548 5543
5573 5575 5575 5573 5572 5570 5567 5568 5566 5562 5559 5556 5552 5545 5541 5539 5538 5540 5542 5554 5561 5559 5560 5559 5554 5550 5553 5559 5556 5555 5551 5547 5548 5552 5550 5547 5540 5527 5538 5535 5544 5553 5560 5565 5562 5556 5548
5576 5572 5572 5573 5570 5570 5570 5569 5568 5566 5563 5558 5553 5550 5544 5546 5540 5549 5558 5560 5564 5562 5563 5564 5560 5558 5562 5553 5554 5555 5550 5548 5546 5549 5547 5551 5541 5528 5518 5534 5530 5576 5571 5573 5565 5564 5558
5580 5576 5572 5572 5571 5567 5565 5568 5565 5565 5563 5556 5553 5553 5544 5544 5541 5550 5552 5563 5567 5562 5564 5566 5567 5564 5557 5559 5556 5555 5550 5564 5568 5558 5551 5543 5534 5538 5531 5522 5556 5580 5575 5569 5571 5581 5574
5581 5576 5574 5571 5570 5570 5567 5564 5566 5563 5562 5557 5553 5551 5548 5544 5548 5563 5558 5564 5556 5558 5560 5569 5568 5563 5564 5555 5553 5565 5549 5565 5565 5556 5550 5540 5534 5534 5520 5543 5566 5587 5582 5578 5580 5565 5586
5579 5576 5573 5572 5571 5570 5568 5562 5559 5560 5559 5555 5550 5549 5545 5543 5550 5554 5553 5558 5559 5554 5553 5556 5568 5567 5563 5550 5556 5544 5552 5558 5553 5557 5557 5540 5532 5530 5528 5521 5558 5575 5579 5575 5580 5586 5581
5575 5575 5575 5573 5570 5568 5566 5568 5566 5560 5556 5553 5548 5545 5541 5536 5548 5553 5558 5558 5556 5552 5557 5561 5560 5558 5552 5554 5548 5542 5536 5545 5546 5552 5562 5552 5535 5528 5522 5535 5550 5571 5576 5575 5584 5582 5578
5574 5570 5568 5569 5569 5566 5564 5564 5562 5558 5557 5555 5546 5544 5540 5538 5549 5551 5556 5558 5559 5561 5556 5550 5554 5556 5552 5543 5535 5533 5546 5528 5531 5545 5548 5546 5553 5551 5544 5559 5578 5570 5578 5582 5576 5579 5577